Location: Unspecified
(34.4407°N, 0.0000°E)
Time: 23:56:19
(UTC+00:00)

STARLINK-5029 - Pass Details

Date: 31 October 2025
Orbit: 539 x 541 km, 53.2° (Epoch: 29 March)

Event Time Altitude Azimuth Distance (km) Brightness Sun altitude
Rises 17:38:19 0° 329° (NNW) 2,695 7.4 -7.0°
Reaches altitude 10° 17:41:29 10° 355° (N) 1,802 6.2 -7.6°
Maximum altitude 17:43:43 14° 28° (NNE) 1,552 5.6 -8.1°
Drops below altitude 10° 17:45:56 10° 61° (ENE) 1,799 5.6 -8.5°
Enters shadow 17:45:57 10° 61° (ENE) 1,804 5.6 -8.5°
